Zurück zum Katalog

SL-14 DEB

AktivPO
NORAD 25221·DEBRIS·🇷🇺 Russia

Gestartet Aug 18, 1987 von Plesetsk Cosmodrome

Loading…

Nächste Überflüge (nächste 24 Stunden)

TLE

AktuellSource: Space-Track

Epoche: Sep 14, 2026, 15:08 UTC

1 25221U 87068AY  26257.63112932  .00000335  00000-0  42388-3 0  9999
2 25221  82.3000  25.6089 0165018 190.3698 184.7906 13.55646885410421

Verfolge SL-14 DEB in Echtzeit mit AllMySat

Download on the App Store